Location: Unspecified
(45.3712°N, 0.6436°E)
Time: 00:37:27
(UTC+02:00)

ISS - Pass Details

Date: 14 July 2018
Orbit: 402 x 408 km, 51.6° (Epoch: 19 July)

Event Time Altitude Azimuth Distance (km) Brightness Sun altitude
Exits shadow 02:40:19 47° 37° (NE) 546 -2.9 -22.4°
Drops below altitude 10° 02:42:52 10° 58° (ENE) 1,472 -0.5 -22.3°
Sets 02:44:58 0° 61° (ENE) 2,335 0.6 -22.3°
